RH
19 18 17 17 16 16 16 16 16 17 19 20 23 25 26 26 24 23 21 20 20 20 20 21 22 24 26 27 28 29 29 29 27 25 23 21 20 19 17 16 14 13 13 12 11 11 10 10 9 9 9 8 8 7 8 7 7 7 6 7 7 8 8 9 13 16 18 21 42 54 35 31 38 28 23 24 17 12 12 13 14 20 22 17 17 18 15 14
21 20 18 18 18 18 18 19 19 20 20 21 23 23 23 21 19 17 16 15 16 16 18 19 21 23 25 26 27 27 27 26 24 23 22 20 19 17 16 15 14 13 12 11 11 10 9 9 9 8 8 8 8 7 7 7 7 7 7 7 6 7 6 7 10 16 22 18 35 50 25 17 28 29 25 17 14 11 9 12 13 18 20 18 17 16 15 14
22 21 20 20 21 21 21 19 18 18 18 20 20 20 18 16 14 13 13 13 14 15 17 19 21 23 25 26 26 26 26 24 22 21 19 18 16 15 14 13 13 12 10 10 9 8 8 8 7 7 7 7 6 6 7 6 6 6 7 7 6 7 5 8 8 15 29 22 31 41 17 11 18 24 27 15 8 8 6 9 12 16 21 21 18 17 16 15
23 23 23 23 23 21 18 16 15 18 19 20 19 17 15 14 14 14 14 14 15 16 17 20 23 25 26 26 26 25 23 21 18 17 15 14 13 12 11 9 9 7 7 6 5 6 5 5 5 5 5 5 5 5 5 5 6 5 6 5 5 7 5 7 6 19 37 24 22 27 13 11 12 14 20 13 7 7 7 8 10 14 21 22 20 19 18 16
26 25 25 23 21 18 16 17 19 21 20 18 16 15 15 16 17 17 17 17 17 17 18 20 23 24 24 24 23 21 20 17 14 13 11 10 8 7 6 5 5 4 4 3 4 4 3 4 4 4 5 4 4 4 5 5 4 4 5 6 5 5 6 6 7 28 44 22 12 16 10 9 8 9 11 10 8 6 7 7 7 11 19 23 19 19 18 13
28 26 24 20 17 16 18 21 21 20 19 17 17 17 19 19 20 20 19 19 18 18 18 20 22 23 23 22 20 18 15 11 9 8 6 5 4 4 4 3 4 3 4 3 4 4 4 5 4 6 5 5 6 5 6 5 6 9 4 5 6 4 7 6 6 23 29 12 6 10 9 8 6 7 8 8 7 5 7 7 8 11 16 20 18 17 16 11
28 25 20 16 15 19 22 22 20 19 19 19 20 20 21 21 22 21 21 19 18 18 19 21 23 22 21 18 15 12 9 6 5 4 3 4 4 4 4 4 4 4 4 4 5 5 6 6 6 8 5 8 13 11 13 13 19 26 12 6 8 4 6 7 8 13 12 5 5 5 5 7 6 7 7 7 8 7 9 10 11 12 14 17 17 17 15 11
27 23 17 15 18 22 22 21 21 21 21 22 22 22 23 23 23 22 21 19 18 20 22 23 22 20 16 13 9 6 4 4 3 4 4 5 5 5 5 5 6 6 6 6 7 7 8 8 7 9 7 11 15 15 24 21 19 25 15 9 10 6 7 7 8 9 8 6 5 5 5 6 7 9 9 8 8 8 9 10 10 11 15 18 18 17 13 9
24 19 15 16 21 22 22 22 23 22 23 23 23 24 24 24 23 22 20 19 20 22 23 22 18 14 11 7 5 3 3 3 4 5 6 7 7 7 7 8 8 9 9 9 10 10 10 11 10 10 8 10 11 10 18 14 13 19 13 11 10 8 9 9 8 9 10 9 7 7 5 6 8 9 9 6 6 6 6 7 8 10 15 19 20 19 13 8
20 16 16 20 22 22 23 23 23 23 23 23 24 25 25 24 23 21 20 21 22 23 21 18 13 9 6 4 3 3 3 4 5 7 8 8 8 9 9 10 12 13 13 11 12 14 15 15 13 13 12 11 12 11 13 11 12 17 12 10 11 11 11 10 8 9 11 11 9 8 6 6 7 8 7 5 5 5 6 6 7 11 15 18 21 20 15 9
18 18 19 21 23 23 23 23 23 23 23 24 25 25 25 24 23 21 21 22 22 21 18 13 9 6 4 3 3 3 4 5 7 9 9 10 9 12 14 16 18 18 18 16 14 15 17 20 18 18 17 14 14 14 18 18 14 14 12 10 10 10 10 9 9 10 11 10 9 9 8 7 7 8 6 5 5 5 6 7 7 9 11 16 20 21 17 12
19 20 21 22 23 23 23 23 24 24 24 25 25 25 25 24 23 21 21 22 22 19 13 9 6 4 3 3 3 3 4 5 8 9 10 12 13 16 19 20 21 22 23 23 21 17 16 19 21 24 26 23 23 22 22 23 20 22 25 21 16 13 10 10 10 8 9 10 10 10 8 7 7 8 7 7 7 6 7 5 6 7 7 10 16 20 18 14
21 21 21 22 22 22 23 24 25 25 25 25 26 27 26 25 23 22 23 22 19 15 10 7 5 3 3 3 4 4 5 7 8 11 13 16 17 19 21 23 24 27 29 30 29 26 23 21 20 23 26 27 31 32 30 28 24 25 29 25 19 16 12 11 12 13 12 7 8 9 8 8 7 8 9 8 8 8 8 7 5 5 6 7 8 13 16 16
22 21 22 22 22 22 23 24 25 26 26 27 28 28 27 25 23 23 23 21 17 12 8 6 4 3 3 4 5 5 6 9 11 14 16 18 20 21 22 25 27 31 34 37 40 39 37 34 30 29 29 30 29 29 33 35 31 28 27 22 19 17 14 20 35 46 45 34 28 21 12 9 8 11 8 9 21 19 8 7 8 6 5 6 6 7 9 13
22 22 23 23 23 23 24 24 25 26 27 28 29 29 27 25 24 24 22 19 15 11 7 5 3 3 4 5 6 7 9 11 13 15 15 19 23 23 23 27 34 39 39 42 52 53 48 46 48 46 45 45 38 34 34 33 34 35 34 38 45 42 27 26 43 60 74 79 70 46 24 15 12 15 10 13 37 46 32 16 8 9 8 7 7 6 6 7
23 23 24 25 25 25 25 24 25 28 28 29 30 30 28 26 25 24 21 18 14 9 6 4 3 4 4 6 7 8 10 11 12 14 16 20 22 26 28 31 39 47 45 46 56 60 55 54 60 61 61 62 61 62 58 47 46 47 47 54 66 66 54 53 53 52 71 90 82 55 31 20 15 18 16 14 34 66 76 42 10 8 10 9 9 7 7 6
24 24 25 26 27 27 26 25 26 29 30 30 30 30 29 28 27 24 20 17 12 8 5 3 4 5 6 7 8 9 9 10 11 13 16 19 23 27 32 38 45 49 51 54 58 64 63 63 67 70 71 73 73 76 77 71 63 60 63 70 79 78 68 67 57 46 67 87 83 63 39 25 21 22 22 20 28 48 58 34 11 13 10 9 11 8 8 6
27 27 27 28 28 28 28 27 27 29 31 31 31 30 28 29 27 23 20 16 12 7 5 4 4 6 8 8 8 9 9 9 11 13 15 18 25 31 34 44 50 50 58 67 66 66 70 70 71 74 75 78 79 76 75 76 67 56 60 69 78 74 56 50 47 54 83 93 85 72 47 29 29 35 36 33 34 33 31 22 15 16 13 10 10 10 10 7
31 30 30 31 30 30 30 29 27 29 30 31 32 30 28 29 27 23 20 16 11 7 4 4 4 6 8 8 8 9 9 10 12 15 17 19 25 32 36 45 49 50 63 76 77 74 77 79 77 78 79 82 88 86 81 77 64 48 42 43 46 45 39 40 39 50 72 71 63 60 46 35 39 49 48 39 39 38 34 31 22 15 13 12 10 9 9 9
35 33 32 33 33 33 32 30 29 28 29 31 32 29 28 29 27 23 20 15 10 7 5 4 5 8 9 9 9 8 9 11 13 18 21 22 25 29 35 44 50 51 57 70 81 86 89 92 92 91 88 87 93 97 91 81 70 57 48 47 45 39 37 40 38 37 45 47 50 51 43 41 42 43 40 35 38 40 37 36 34 26 19 14 12 11 9 8
38 36 35 35 35 35 35 32 29 29 31 32 30 29 30 30 28 24 20 15 10 7 5 4 6 8 10 9 8 9 9 10 13 16 18 22 26 28 34 45 55 62 67 74 83 90 94 95 98 100 95 93 96 97 91 83 79 75 71 69 65 57 53 55 57 55 52 48 47 48 44 38 34 30 28 29 32 32 32 32 35 35 32 26 18 13 11 9
41 40 39 39 38 37 37 34 30 30 32 33 32 31 33 33 29 26 20 13 10 7 5 5 6 8 11 10 9 10 10 10 12 14 15 20 27 31 37 48 61 73 78 77 78 86 94 94 95 100 98 96 99 97 91 84 81 82 82 80 75 73 75 75 75 75 70 63 57 56 52 44 40 37 34 35 35 34 33 32 34 36 36 36 28 19 17 12
43 43 43 43 41 40 39 35 31 30 30 32 32 32 35 36 31 26 20 12 10 8 5 5 6 8 11 11 11 11 11 12 13 15 18 21 27 33 39 50 61 71 75 73 76 88 97 97 97 100 101 99 100 98 91 85 84 86 83 84 83 81 83 83 81 80 78 72 66 61 55 51 49 46 43 45 49 49 43 36 35 35 33 36 34 26 23 20
43 45 46 45 44 43 41 36 31 32 34 33 32 32 37 37 31 27 20 13 11 8 6 5 6 8 10 10 11 11 11 11 13 17 20 21 26 32 41 53 59 67 75 75 82 95 96 94 97 99 99 99 99 97 92 85 85 88 86 89 90 83 82 82 79 79 78 74 72 70 61 55 56 56 55 56 56 55 53 53 50 44 39 36 36 32 27 25
40 43 46 47 47 46 44 39 34 34 36 33 29 32 39 37 32 28 21 15 12 7 6 6 5 9 10 10 12 12 10 12 15 18 20 21 24 29 43 56 59 66 75 75 83 96 94 92 97 94 91 94 94 90 87 83 81 86 90 91 88 82 79 79 79 79 78 73 76 82 69 55 62 68 65 65 64 58 60 64 59 53 50 45 46 49 37 24
35 38 43 47 48 48 45 40 35 33 33 30 27 31 39 38 32 28 21 16 13 8 6 5 5 8 8 11 14 13 11 13 18 20 20 21 22 31 49 61 64 66 70 76 84 89 91 95 93 83 82 88 87 82 82 86 86 88 91 86 82 82 81 81 85 85 83 76 76 87 77 56 60 70 72 76 70 66 71 64 48 48 57 53 49 52 40 24
31 33 40 47 49 49 46 40 35 34 32 26 24 30 40 39 33 28 21 17 14 8 6 5 5 5 7 12 14 14 14 13 18 19 20 22 22 33 49 56 61 65 70 81 85 82 84 92 87 78 79 84 84 84 87 89 90 89 89 85 85 87 85 86 89 90 91 81 72 88 91 70 64 73 85 87 71 70 85 80 61 53 55 50 42 46 41 27
28 30 39 48 51 50 47 40 35 35 31 23 21 31 40 39 34 28 21 19 14 8 6 5 5 4 6 11 13 15 16 14 17 18 20 23 24 34 46 49 53 63 73 79 80 79 79 84 84 78 76 82 88 92 93 92 91 92 89 87 88 85 85 89 89 93 97 84 76 93 101 81 69 79 91 88 75 74 83 87 78 62 59 54 40 42 45 31
26 28 37 48 53 52 48 40 36 35 30 23 22 32 41 39 34 28 23 21 16 9 7 5 5 4 4 7 11 15 16 15 17 18 19 20 22 34 43 44 49 59 66 68 74 79 76 75 81 80 75 80 89 92 94 93 92 92 86 84 86 79 80 88 90 95 93 84 87 99 101 86 72 78 89 87 85 86 87 94 89 70 72 74 52 42 44 35
27 28 35 48 54 53 49 42 39 37 30 23 24 34 40 37 34 31 26 23 17 10 7 5 5 4 4 5 8 14 16 15 17 18 18 17 21 31 33 34 46 54 58 65 74 76 71 68 73 76 72 71 79 85 90 93 90 87 80 80 84 80 81 88 93 96 87 84 97 99 98 94 79 79 90 90 89 89 90 93 86 73 74 73 58 46 41 37
28 28 33 46 54 53 49 43 38 36 30 22 26 36 40 38 36 32 28 26 19 12 7 5 5 4 4 5 6 11 15 15 15 17 18 17 23 30 29 31 40 46 54 68 78 80 78 74 69 69 69 68 75 83 90 94 93 90 83 78 81 81 83 89 95 99 91 90 99 98 100 98 88 87 90 90 89 88 86 80 71 71 74 72 66 59 53 48
28 28 32 43 53 54 50 43 38 36 30 22 27 37 39 40 39 34 33 30 21 14 9 5 6 4 3 5 5 8 14 15 15 16 17 17 20 22 23 25 27 34 47 60 70 77 78 76 72 71 73 72 73 77 87 97 97 97 94 86 82 80 82 89 93 96 96 97 99 99 99 93 91 94 91 87 87 83 83 79 69 65 64 66 65 62 70 71
27 28 30 39 52 55 52 47 41 38 31 23 28 36 38 41 41 39 39 35 23 16 11 5 6 5 3 5 5 6 11 13 15 16 16 17 20 21 19 20 21 27 39 50 61 69 68 67 70 73 74 72 70 71 81 93 96 98 99 95 91 87 85 90 92 90 91 94 98 99 95 91 95 99 96 93 90 85 85 86 81 69 59 62 62 54 66 71
26 28 28 37 50 54 54 51 43 38 31 24 27 34 39 43 42 41 42 38 27 19 13 8 6 5 4 4 5 5 8 11 13 16 15 16 22 25 21 20 23 26 33 44 58 70 68 63 66 74 75 73 77 82 86 92 95 97 98 98 99 97 94 95 95 93 89 87 95 100 97 97 100 99 99 98 95 95 90 83 80 73 63 65 63 54 59 62
24 28 28 34 45 52 56 54 46 40 33 26 26 31 40 44 41 43 45 40 30 20 13 10 7 5 5 4 4 4 6 8 11 14 15 15 19 22 20 20 22 24 28 36 50 66 72 68 67 76 80 80 90 98 95 94 96 96 95 93 97 101 100 100 99 100 95 85 86 94 97 100 101 96 95 96 98 99 91 83 81 78 73 69 62 51 47 48
20 23 27 34 44 52 57 56 48 41 34 27 25 30 41 46 43 45 48 43 34 22 12 9 8 6 5 4 4 4 5 6 8 11 14 15 16 17 19 20 21 23 24 29 40 56 69 72 71 75 81 87 98 102 97 96 99 99 96 91 92 99 101 101 101 102 98 86 80 85 92 98 100 97 96 96 100 99 94 94 93 91 90 85 78 65 51 45
14 18 24 31 39 46 54 56 50 42 35 28 27 34 42 46 44 45 48 46 38 26 14 9 8 7 5 4 4 4 4 5 6 8 10 13 16 19 20 20 20 22 23 26 34 46 60 71 72 73 81 91 99 100 97 98 100 100 98 92 87 94 99 99 96 93 89 84 82 87 94 95 92 95 98 97 95 95 95 96 96 97 96 91 88 83 74 62
10 14 22 28 35 45 55 58 52 44 36 29 29 37 42 45 46 46 47 48 41 29 18 11 8 7 6 5 5 4 4 5 6 7 8 10 16 24 25 21 19 22 24 26 30 39 53 68 73 72 80 94 100 100 98 98 100 98 98 95 90 89 93 94 92 86 81 79 79 87 99 98 92 92 93 89 88 90 91 88 87 93 95 91 91 90 88 78
8 14 23 30 37 47 54 57 54 47 38 31 30 34 41 45 48 48 48 48 44 33 20 13 10 8 7 6 5 4 4 5 5 7 8 10 14 21 22 20 20 22 23 25 28 34 45 64 75 72 79 95 101 100 98 95 99 100 99 100 97 91 89 92 97 94 87 85 82 84 96 101 97 97 93 87 89 93 94 93 92 96 96 95 96 96 93 85
7 13 21 28 35 44 51 56 56 49 40 34 31 34 41 44 44 47 48 48 46 36 23 14 10 8 7 6 5 5 4 4 5 6 8 10 10 12 16 18 19 21 23 24 25 30 39 55 70 74 83 97 101 100 96 89 95 101 100 100 96 91 90 91 98 101 95 95 94 89 93 99 100 101 96 93 95 95 92 90 92 98 102 100 99 100 100 92
7 10 17 25 33 41 50 58 60 52 42 37 34 36 41 42 43 47 48 48 48 41 28 16 10 9 8 7 6 5 4 4 4 6 8 10 10 10 14 16 17 18 22 23 22 26 34 45 58 72 87 95 94 97 94 85 89 96 98 99 96 94 92 85 89 100 100 98 100 97 97 100 101 100 99 98 95 89 84 79 79 84 93 100 100 98 99 99
8 9 14 23 33 41 50 59 61 53 44 39 36 37 37 39 45 49 48 48 48 46 36 20 11 11 8 7 7 5 5 4 4 5 7 12 12 10 12 14 15 17 20 22 22 22 28 36 45 61 81 92 93 96 96 89 87 87 90 98 101 99 97 88 84 94 100 99 100 101 100 100 101 99 100 99 90 80 79 82 81 77 81 94 98 94 95 98
9 10 14 23 34 44 55 63 60 51 45 40 37 39 37 37 45 51 50 50 50 49 42 24 13 11 9 8 8 5 5 4 4 5 6 10 12 12 12 12 13 16 18 21 21 21 24 29 34 47 69 88 92 90 92 92 86 81 86 96 99 100 100 98 93 94 100 101 99 98 96 98 101 100 100 100 90 79 80 86 88 84 85 91 93 91 96 97
9 11 16 25 35 46 58 66 61 51 45 41 39 40 37 36 42 49 53 55 54 53 45 29 16 12 10 9 8 7 6 4 4 5 5 8 12 14 14 13 12 14 17 19 19 21 23 23 26 34 47 64 74 80 90 96 87 82 91 98 98 100 100 99 99 99 99 100 100 98 91 93 101 99 98 101 97 91 90 92 93 95 95 97 95 92 95 98
9 11 15 24 36 48 60 66 61 51 44 40 39 39 36 34 36 43 51 56 58 57 48 32 18 12 10 9 9 8 6 5 5 4 4 6 9 12 14 14 13 12 14 16 18 19 20 20 22 25 30 41 57 78 95 98 89 86 96 100 98 100 101 98 98 100 99 99 101 98 88 90 100 99 95 98 98 95 94 95 97 98 94 92 95 95 95 99
9 11 13 20 35 49 60 66 60 51 44 39 38 37 34 31 28 34 45 53 58 59 51 35 19 13 11 9 9 8 6 6 5 4 5 5 7 11 14 14 15 15 15 15 16 18 18 19 19 19 24 31 47 78 98 94 88 90 95 100 101 99 100 101 99 99 100 99 100 99 90 86 92 94 92 90 90 87 83 80 78 72 68 77 94 99 95 98
9 11 13 21 38 51 59 64 60 51 44 39 37 34 32 28 23 25 36 46 53 58 56 42 24 14 11 10 10 9 7 7 5 4 5 4 6 11 13 14 15 16 17 14 15 17 16 17 18 18 24 30 43 73 90 84 84 87 86 94 101 99 99 101 99 99 101 98 94 97 97 88 84 93 97 91 88 85 73 56 40 29 31 52 83 101 98 91
9 10 12 22 42 55 61 64 60 51 43 39 37 34 31 28 22 22 30 40 49 56 59 51 31 16 12 11 10 9 8 7 6 5 4 4 6 8 11 15 17 16 16 14 14 17 15 17 19 17 23 32 44 66 77 76 83 84 78 87 101 100 98 100 100 99 100 100 95 93 97 92 86 93 101 97 95 91 68 36 18 11 9 20 46 74 95 98
9 10 11 22 44 59 65 68 61 50 44 41 38 35 32 29 24 22 27 36 46 53 58 57 40 20 12 12 11 10 9 8 6 6 5 4 5 6 8 14 18 18 17 14 14 14 15 17 17 17 22 29 41 59 66 71 86 85 71 80 99 101 98 101 101 100 99 101 100 98 98 97 94 96 99 99 101 98 70 31 11 9 9 11 16 25 53 85
9 10 11 23 46 60 65 69 62 50 45 42 38 36 33 31 27 24 27 36 45 51 58 61 51 29 14 12 12 11 10 9 8 7 6 5 4 5 7 9 15 19 18 17 16 14 16 17 16 18 21 25 43 63 63 67 86 83 65 74 96 101 99 101 99 99 100 99 99 97 93 91 94 100 101 99 101 97 66 27 8 9 11 14 17 10 13 36
9 10 11 25 49 61 64 67 61 52 47 43 40 38 35 33 30 25 28 37 44 52 59 64 58 37 19 13 13 12 11 10 9 8 7 7 5 4 6 9 14 19 20 22 22 19 19 18 17 20 21 25 47 65 62 66 82 74 57 64 82 93 100 100 96 98 100 98 95 86 78 79 85 95 101 99 100 89 52 17 7 10 12 22 41 45 26 14
9 10 10 25 51 64 66 67 61 53 49 44 41 39 37 36 34 29 31 37 41 49 59 66 64 46 25 15 13 13 12 11 10 9 9 9 7 5 6 9 12 16 20 27 30 27 25 23 20 22 21 23 36 48 57 72 79 63 45 46 60 83 101 99 96 101 100 99 96 81 75 83 85 89 95 97 102 85 42 12 6 10 22 40 63 72 49 23
Wind_Speed
10 10 11 11 13 14 16 17 19 20 21 22 23 23 24 24 25 26 27 28 29 29 30 31 31 32 33 33 33 34 34 34 34 34 34 35 35 36 36 36 37 38 38 39 39 40 41 41 42 42 43 43 44 44 45 45 46 47 47 47 47 44 45 44 42 44 45 40 28 29 39 40 43 50 53 56 55 54 52 51 49 46 48 50 49 47 51 53
11 11 12 13 15 16 18 19 20 21 22 23 23 23 23 24 25 26 28 28 29 30 30 31 31 32 32 33 33 33 34 34 34 35 36 36 37 37 38 38 39 40 40 41 42 42 43 44 44 44 45 46 46 47 47 48 48 49 49 50 47 45 47 44 45 46 43 46 42 40 46 49 51 54 56 59 58 56 53 53 53 52 51 50 50 50 52 54
13 14 14 15 16 18 19 20 22 22 22 22 22 23 24 25 26 27 28 29 30 30 30 31 31 32 32 33 33 34 34 34 35 36 37 37 38 39 40 40 41 42 42 43 44 44 45 46 46 46 47 48 48 48 49 50 50 52 52 51 49 47 48 46 49 47 42 49 49 47 52 54 56 58 59 61 59 55 54 54 54 52 50 49 51 53 54 53
15 15 16 17 18 19 21 22 22 22 21 21 22 23 25 27 28 29 29 30 30 30 31 31 31 32 32 33 33 34 34 35 36 36 38 38 40 41 41 42 43 43 43 44 44 44 45 45 46 47 47 48 49 49 50 50 50 53 54 52 50 50 50 49 51 45 42 53 56 53 55 56 59 60 61 61 57 54 54 55 54 50 48 47 50 54 56 56
16 16 17 18 20 21 22 22 21 20 21 22 23 25 27 28 29 29 30 30 31 31 31 31 31 31 32 33 33 34 35 37 37 38 39 40 41 42 42 42 42 42 42 42 42 42 42 42 43 44 45 45 47 47 48 49 50 51 53 52 52 52 52 53 51 43 45 58 61 58 58 59 60 61 61 61 57 56 56 55 53 49 47 48 52 56 59 60
17 18 19 20 22 22 21 20 20 20 22 23 25 27 28 29 29 30 30 31 31 32 31 31 31 31 32 33 34 35 37 39 39 40 41 41 41 40 40 39 38 37 37 37 36 36 36 37 38 39 40 41 41 42 44 46 46 48 51 52 52 54 53 53 51 48 53 62 63 62 61 62 63 62 62 62 59 58 58 56 53 51 51 52 55 57 60 61
18 19 21 22 21 20 19 19 21 22 23 25 27 28 29 29 30 30 31 31 32 31 31 31 31 31 32 34 35 36 38 39 40 41 40 39 37 34 32 31 30 29 29 29 29 29 29 29 31 32 34 34 34 36 37 39 39 41 46 48 49 51 50 50 50 52 59 64 64 65 63 63 63 63 62 62 61 59 59 59 57 56 56 55 56 57 61 62
19 21 22 21 20 19 19 20 22 23 25 26 28 28 29 29 30 31 31 31 31 31 30 30 31 32 33 35 36 37 39 39 39 37 35 31 28 25 23 23 23 24 24 24 24 23 23 23 23 24 25 26 28 30 31 33 34 36 40 42 43 46 46 47 49 51 56 59 61 62 60 58 59 62 64 64 63 62 62 62 61 60 59 58 57 59 63 64
19 21 21 19 19 19 20 21 23 24 26 27 28 28 29 29 30 31 31 31 30 30 30 31 32 33 34 36 38 39 38 37 35 30 26 22 20 20 20 20 21 21 23 23 23 21 20 18 18 17 18 19 20 22 24 27 27 28 33 36 37 39 40 44 47 45 46 50 53 56 58 57 56 60 65 66 66 65 65 65 64 63 62 59 58 61 64 63
19 20 19 18 18 19 20 22 23 25 26 27 28 28 29 30 30 31 31 30 30 30 31 31 32 34 36 37 39 38 35 32 27 21 18 17 17 18 18 18 19 19 20 21 22 22 20 18 17 17 17 17 16 16 18 19 20 21 25 27 27 30 32 36 40 38 38 42 46 50 54 55 54 57 63 65 64 65 67 67 66 66 64 60 59 62 64 63
19 18 18 18 18 19 21 22 24 25 26 28 28 29 29 30 31 31 30 30 30 30 31 32 33 35 36 38 37 34 29 24 19 15 15 15 15 15 16 16 18 19 20 20 19 18 20 21 20 20 20 19 18 18 18 17 17 18 20 20 20 22 24 26 29 30 31 34 37 41 46 50 51 53 56 57 59 61 65 68 68 68 67 64 61 62 64 63
18 17 17 18 19 20 21 22 24 26 27 28 29 29 30 30 30 30 30 29 29 30 31 32 34 35 37 36 32 28 23 17 14 13 14 14 14 14 16 17 18 20 19 19 20 17 14 17 20 22 23 22 22 22 21 20 19 19 20 20 19 19 19 20 22 24 26 27 30 34 39 42 44 45 45 46 51 55 59 64 67 67 68 67 64 64 64 64
17 17 18 18 19 20 22 23 25 26 28 28 29 29 29 30 30 29 29 29 29 30 31 33 34 36 35 30 25 22 18 14 13 14 14 15 15 15 17 18 19 19 19 18 17 17 15 13 15 18 21 22 23 24 23 22 21 21 21 21 22 22 20 20 22 24 26 27 27 30 32 32 33 36 36 37 41 45 50 55 61 63 65 66 65 65 66 65
17 17 18 19 20 22 23 24 26 27 28 29 29 29 29 30 29 29 28 28 29 30 32 33 35 35 31 24 20 18 15 13 14 15 15 16 17 17 18 19 19 18 18 18 16 16 16 14 12 12 13 16 17 20 21 22 22 22 23 24 24 25 23 21 22 22 25 26 27 30 29 24 25 28 28 28 30 37 43 46 50 55 57 60 62 64 66 65
17 17 18 20 21 23 24 25 27 28 29 29 29 29 29 29 29 29 28 28 29 31 32 33 34 33 25 18 16 15 13 13 15 15 16 18 18 20 21 21 20 18 18 17 15 17 17 15 14 11 11 12 13 13 14 16 19 21 23 23 22 24 25 24 23 22 23 24 26 31 28 22 24 25 25 24 21 26 33 39 43 46 49 51 55 59 62 62
17 18 19 20 22 24 25 26 27 28 29 29 29 28 28 29 29 28 27 28 30 31 32 33 32 28 21 15 14 13 12 13 15 16 17 19 20 21 22 22 21 18 18 18 15 17 18 16 15 13 11 12 12 12 10 10 11 15 20 20 20 23 24 24 24 25 26 25 26 31 31 26 26 26 27 27 22 19 23 32 38 41 43 44 47 51 55 59
17 18 20 21 23 24 26 27 28 29 29 29 29 28 28 28 28 28 27 28 30 31 32 32 29 23 17 15 14 12 13 14 15 16 18 20 21 21 22 22 21 19 19 19 16 16 17 17 16 13 13 13 13 12 10 10 10 11 15 18 19 21 22 23 24 26 26 25 26 30 32 30 29 28 30 30 29 28 29 34 36 37 39 40 42 45 49 54
19 19 21 22 23 25 26 27 28 29 29 29 28 28 28 27 27 27 28 28 29 30 31 30 26 19 13 13 14 13 14 14 15 17 19 20 21 22 22 22 20 19 19 21 20 19 18 18 16 14 14 15 14 14 13 12 12 13 14 17 18 19 21 22 23 24 25 25 26 30 33 34 32 29 29 29 31 34 37 39 39 37 37 38 39 41 43 46
20 21 22 23 24 25 27 28 29 29 30 29 28 28 28 27 25 25 27 28 29 30 31 29 23 17 12 12 14 14 13 14 16 18 21 22 23 23 23 22 21 20 20 21 23 23 22 21 18 16 15 15 16 17 17 16 15 15 16 16 17 18 18 18 19 21 25 28 29 31 34 35 32 28 29 31 33 35 36 39 42 41 38 37 38 39 40 41
21 22 23 24 25 25 27 28 29 30 30 29 28 28 28 27 25 24 26 28 28 30 31 27 20 13 11 12 13 13 12 13 16 17 20 23 24 24 24 22 20 20 21 21 22 23 24 23 19 18 18 18 19 19 19 19 18 17 17 17 17 17 16 16 17 18 22 28 29 29 31 33 32 29 30 32 33 35 37 38 41 42 40 39 39 40 40 39
22 23 23 24 25 25 27 28 29 30 30 29 29 28 28 27 26 26 26 27 28 29 29 25 18 11 9 11 13 12 11 12 14 17 19 22 24 26 26 23 20 20 21 22 22 22 23 22 19 18 20 20 19 19 19 19 18 18 18 18 18 18 18 17 18 19 21 26 27 27 29 30 30 29 29 30 32 34 36 38 40 41 41 41 42 41 40 40
23 23 24 24 25 25 26 28 29 30 29 29 28 27 27 26 26 25 26 27 27 28 27 23 16 10 9 11 12 11 11 12 14 17 20 22 24 25 25 23 20 19 19 20 21 21 22 23 23 20 21 21 19 18 18 17 17 17 17 18 18 19 20 19 19 21 23 27 28 27 30 31 29 28 28 28 30 32 32 35 38 41 42 43 44 43 41 41
24 24 24 24 24 25 26 27 28 30 30 29 28 27 26 25 24 24 25 26 25 27 27 23 17 11 9 11 11 10 10 12 15 17 20 22 23 24 25 22 20 18 18 19 20 20 19 21 24 22 20 20 19 18 18 16 16 17 17 17 18 19 20 21 21 23 25 28 30 29 31 32 30 29 29 29 30 31 33 34 36 39 43 45 46 46 43 44
25 25 25 25 24 24 26 27 28 29 30 29 27 26 25 24 24 23 24 24 24 26 25 22 18 11 10 12 11 10 10 11 14 16 18 21 22 24 24 21 19 18 18 19 19 18 20 22 22 20 18 17 17 17 16 15 14 15 16 16 17 18 20 22 22 24 25 27 28 29 32 32 28 27 28 28 29 30 33 35 34 36 41 45 47 48 46 45
26 27 26 25 24 24 25 26 27 28 28 28 26 25 24 23 23 22 24 24 24 25 23 22 20 12 12 13 11 10 11 11 13 14 16 19 21 24 23 20 20 18 17 19 19 18 21 24 23 20 15 13 13 14 14 14 13 14 15 15 15 17 19 21 21 23 24 23 23 26 31 30 25 24 24 25 27 29 30 31 31 32 36 42 45 47 48 46
26 27 27 26 24 24 24 25 26 28 27 27 26 24 23 23 22 22 23 24 25 26 26 25 23 17 14 12 10 11 10 9 11 13 16 18 21 23 23 21 22 21 18 19 20 20 22 25 26 20 14 12 11 12 12 13 14 14 14 15 17 18 19 20 20 21 22 22 20 22 27 28 24 23 24 24 26 28 27 25 28 30 32 38 42 46 48 46
26 27 27 26 25 24 24 25 27 28 28 27 26 24 23 22 21 22 23 25 25 25 26 24 23 22 16 10 11 12 11 10 9 11 16 18 20 21 21 22 23 22 21 20 21 22 24 27 27 22 15 12 11 11 12 13 14 14 14 15 16 19 19 18 18 17 19 20 18 17 22 25 24 21 21 22 24 26 26 22 23 26 25 29 36 43 47 45
27 27 27 26 25 24 24 25 26 28 28 27 25 23 22 21 20 21 22 24 24 23 24 23 23 22 16 12 12 12 12 13 12 13 15 16 19 20 21 23 25 24 23 22 21 23 26 28 28 24 16 12 12 12 14 15 16 15 15 15 16 17 15 15 16 15 17 18 14 13 18 23 21 18 19 21 23 24 23 20 21 22 19 21 26 35 43 44
27 27 27 26 25 24 24 25 27 28 27 26 25 23 21 20 20 20 21 23 23 22 23 23 23 23 17 13 13 12 12 13 14 16 15 14 17 19 20 23 26 26 25 25 23 23 25 28 28 23 17 14 15 16 17 18 18 18 17 16 16 16 13 12 14 15 16 15 13 12 16 21 20 16 18 20 19 19 19 19 21 20 16 15 18 25 36 41
27 27 27 26 25 24 24 24 26 27 26 25 24 22 21 20 20 19 20 22 23 22 23 23 23 24 19 13 12 12 13 14 14 17 18 17 17 18 20 23 24 26 27 27 27 25 24 27 27 22 18 18 18 18 19 20 20 20 19 18 16 15 14 14 15 15 15 13 14 14 14 19 20 15 17 20 17 18 20 20 21 19 16 13 14 20 29 36
27 27 27 26 25 24 24 24 25 26 25 24 23 21 20 19 19 19 19 20 21 22 23 24 24 24 21 16 13 12 14 15 14 15 19 20 19 18 19 21 22 24 26 26 25 24 24 27 28 22 19 19 19 20 22 23 23 23 24 22 18 16 16 16 15 16 15 13 14 17 17 20 21 18 19 20 18 19 20 20 18 18 18 14 13 18 23 30
26 27 27 27 26 25 25 25 26 27 26 24 22 21 20 19 19 20 20 20 21 21 22 23 24 23 22 19 14 12 14 16 15 15 18 20 22 21 18 19 22 23 23 22 21 21 21 25 26 21 19 20 21 23 25 26 26 26 26 25 22 21 21 19 16 16 16 16 16 18 20 21 20 19 19 19 20 21 21 20 19 18 19 18 18 18 20 25
26 27 27 27 26 25 25 25 26 27 26 24 22 20 19 18 18 19 20 20 20 21 21 21 23 23 23 20 15 13 15 17 16 17 18 20 22 22 20 21 23 24 24 24 24 23 22 21 21 21 21 21 22 25 27 27 28 28 27 25 25 25 25 23 21 17 14 15 17 18 20 19 16 17 19 17 18 21 21 22 21 21 21 21 22 22 22 24
25 27 27 27 26 25 25 25 26 26 26 24 22 20 18 17 16 17 19 20 20 21 21 21 22 23 24 22 17 14 15 17 18 18 19 20 20 21 21 21 22 24 25 25 27 27 27 25 23 22 23 23 24 28 30 30 30 30 28 27 26 24 25 26 26 22 19 16 14 14 15 14 12 15 19 20 20 22 24 24 23 23 23 23 24 24 25 26
25 26 27 27 27 26 25 25 26 26 25 24 22 21 19 17 17 17 19 20 19 20 21 21 22 23 23 24 21 17 15 16 18 19 20 20 20 21 21 21 21 23 24 24 25 26 26 26 25 23 23 24 25 27 31 31 31 31 30 29 27 24 25 27 27 25 25 20 12 9 10 10 13 16 19 20 20 23 25 26 26 25 24 25 26 27 28 29
25 26 27 27 26 26 25 25 26 26 25 24 22 21 19 17 17 17 18 19 18 19 20 21 22 22 22 23 23 21 18 16 16 18 21 21 21 21 21 20 21 22 23 24 24 24 23 24 24 23 24 24 23 25 31 33 33 33 31 29 30 29 27 29 28 25 24 21 15 12 11 11 14 16 18 20 21 23 24 25 26 27 27 26 26 26 28 30
24 26 26 26 26 26 26 25 26 25 24 23 22 21 18 16 16 16 17 19 18 18 18 19 20 21 21 22 22 21 20 19 17 17 19 21 21 22 21 20 21 21 23 24 25 25 24 24 24 23 24 23 20 23 31 34 34 34 32 30 31 31 31 31 31 27 23 21 19 16 15 13 12 13 16 21 23 23 24 25 26 27 29 28 26 26 27 29
23 25 26 27 28 27 26 26 26 25 25 23 21 19 18 16 16 16 17 18 18 18 17 18 19 20 21 22 22 22 20 20 19 18 19 19 20 20 20 20 20 21 22 23 25 26 26 25 23 22 21 21 20 23 29 34 36 36 34 32 32 33 34 33 32 28 24 22 20 15 14 14 14 16 20 22 22 23 25 26 28 29 29 29 27 26 27 28
23 24 26 27 28 27 26 26 26 26 26 24 22 19 17 16 15 16 17 17 18 18 18 18 19 20 21 22 23 22 22 20 20 20 20 18 18 19 19 19 20 20 21 21 23 25 26 25 23 21 21 21 20 22 28 33 34 35 33 30 31 32 34 34 32 28 25 24 22 18 15 15 17 20 23 24 25 25 25 26 27 30 31 31 30 28 27 28
22 23 25 26 27 27 27 27 26 25 24 24 23 21 19 18 16 16 17 17 18 18 17 18 19 20 21 22 23 23 23 22 21 20 20 19 19 19 18 18 19 19 20 20 21 23 24 24 23 22 21 20 19 21 27 31 32 33 31 29 29 30 31 32 31 28 26 25 25 24 21 20 22 23 26 27 27 27 28 26 24 25 28 31 32 31 29 29
23 24 25 27 28 28 27 26 26 26 24 23 22 20 19 19 18 17 17 18 18 17 16 17 18 19 19 20 22 23 23 23 22 21 20 19 19 18 17 18 19 19 19 19 19 20 21 23 22 20 18 17 18 21 26 30 31 33 34 33 33 33 33 32 30 29 27 26 25 27 28 29 29 28 29 30 28 27 27 25 22 19 22 26 28 29 29 30
24 26 26 28 29 29 27 25 24 24 24 24 23 21 20 19 18 18 18 18 18 17 17 16 17 18 18 19 21 22 23 24 23 22 20 19 19 18 16 18 20 20 19 18 18 19 19 20 21 19 17 17 19 21 25 28 30 32 33 33 33 35 35 34 33 32 28 27 27 30 32 33 33 31 31 28 25 23 22 22 22 19 19 22 24 25 25 26
25 27 28 29 30 29 27 25 24 23 23 24 24 23 21 20 18 17 18 19 19 19 18 17 17 18 18 19 20 21 22 23 23 22 20 19 19 19 17 16 18 19 19 18 18 18 18 19 20 20 19 19 20 22 24 26 29 31 32 32 31 33 34 34 35 34 31 30 33 36 37 35 31 29 30 26 22 20 20 21 21 20 20 21 23 24 22 23
24 26 27 29 30 28 25 24 24 24 23 24 24 24 22 20 18 17 17 17 18 18 18 17 17 18 19 19 20 21 21 22 23 23 21 19 18 19 19 17 16 18 18 17 17 17 17 19 20 20 19 19 20 21 21 24 28 31 33 33 31 30 32 32 32 33 31 31 35 39 42 38 28 24 26 23 21 20 21 23 24 25 25 24 23 23 20 19
24 25 26 27 29 27 24 23 23 23 23 24 25 25 24 21 18 17 16 16 17 17 17 17 17 18 18 19 20 21 21 22 23 23 21 19 17 18 20 20 18 17 17 17 16 16 17 18 20 19 20 21 20 20 20 23 28 30 32 34 31 29 32 32 32 33 32 31 33 38 44 39 26 21 21 19 19 21 21 23 25 27 29 28 23 22 20 19
24 26 27 29 29 27 23 23 23 23 23 24 25 26 25 23 19 16 15 15 15 15 15 16 17 17 18 18 19 21 22 22 23 24 23 20 18 18 18 19 18 16 16 15 15 16 16 17 19 20 20 22 22 21 21 24 27 28 30 33 31 30 33 33 32 33 33 33 32 36 42 39 28 22 22 19 19 20 21 23 24 25 26 26 21 18 20 19
23 25 27 30 30 27 23 21 22 23 23 24 25 26 26 24 21 17 16 15 15 15 15 14 15 16 16 17 18 20 21 21 22 23 24 22 20 18 17 17 18 16 13 13 13 14 15 16 18 19 20 22 22 20 21 24 26 27 29 32 32 30 31 31 31 33 34 34 34 36 39 39 33 29 27 25 23 23 24 24 23 22 22 22 19 16 15 15
24 24 26 29 30 26 23 22 22 22 23 24 25 26 25 24 22 19 17 17 15 15 15 14 15 15 15 16 17 18 19 21 22 23 23 23 21 18 17 17 19 17 13 12 12 13 15 15 16 17 19 21 20 18 19 23 25 27 28 31 32 30 30 31 31 32 32 33 35 36 37 38 38 35 30 28 28 29 29 27 25 23 21 20 19 18 16 14
23 24 26 29 29 25 22 23 23 22 22 23 24 25 25 24 22 20 18 18 16 15 15 14 14 14 14 15 15 16 17 19 21 22 22 23 21 20 19 18 19 19 15 13 13 13 15 15 16 17 18 19 19 17 19 23 24 25 28 30 31 31 31 31 31 31 30 30 33 36 36 36 39 40 32 27 28 31 31 29 27 27 26 23 22 21 21 20
23 24 26 29 28 24 21 21 22 22 22 23 24 24 24 23 22 20 18 17 17 16 15 15 14 14 14 14 15 15 16 17 19 20 21 23 22 21 20 19 20 20 18 15 14 14 15 16 16 16 17 18 18 18 20 22 22 24 27 29 29 30 30 29 30 31 29 29 31 35 37 37 39 39 31 25 28 33 32 30 29 31 32 30 25 22 22 24
23 23 25 29 28 23 20 21 21 21 22 23 24 24 24 23 21 20 19 17 17 16 15 15 15 14 14 14 14 15 16 17 19 19 20 21 22 22 21 20 19 20 19 19 18 17 16 16 15 16 17 17 16 17 19 21 21 22 25 27 28 29 28 27 28 31 32 33 34 37 40 42 42 39 31 25 28 33 34 33 33 35 35 29 24 21 19 22
22 23 25 28 28 23 21 21 21 21 22 23 25 25 25 23 21 20 18 18 17 16 15 15 15 14 14 14 14 15 16 17 18 19 20 20 20 20 20 20 19 18 18 18 19 19 18 17 15 15 16 16 15 15 17 19 21 23 26 27 29 30 28 26 26 29 33 35 36 39 41 40 41 41 34 26 27 34 37 36 38 41 35 25 23 23 21 18
Wind_Direction
326 323 322 322 321 321 322 321 321 321 321 321 321 322 323 324 325 324 322 319 316 313 311 308 306 303 301 299 298 296 294 293 292 290 288 287 286 285 284 283 282 281 279 278 276 275 273 271 270 268 267 265 263 262 260 258 257 256 254 253 253 253 252 251 249 249 247 240 234 241 232 220 228 237 240 242 247 249 249 250 248 244 245 247 246 246 250 251
331 329 328 327 327 327 327 326 325 325 325 325 327 329 330 328 327 324 321 319 316 314 312 310 307 305 303 301 299 298 296 295 294 292 291 290 290 289 287 286 284 283 281 279 278 276 274 272 270 269 267 265 264 262 261 259 257 256 255 254 254 253 251 248 247 246 245 243 233 231 236 231 228 232 239 243 244 245 246 247 246 245 246 249 249 250 251 251
335 333 333 332 333 332 331 329 328 329 330 332 333 333 331 329 326 324 322 320 318 316 313 311 309 307 304 302 301 299 298 297 296 295 295 294 293 291 289 288 286 284 283 281 279 277 274 272 271 268 266 264 263 261 260 258 257 256 255 255 255 252 250 246 245 243 240 242 237 233 239 239 234 231 234 241 245 245 245 245 245 246 247 248 250 251 250 249
337 336 337 337 336 335 334 332 333 335 336 336 335 333 331 328 327 325 323 321 319 316 314 312 310 308 306 305 304 302 301 300 299 299 297 296 294 293 291 289 287 286 284 282 280 278 275 273 271 268 266 264 262 260 259 258 256 255 255 254 253 251 248 245 244 243 239 242 240 236 239 240 240 238 236 241 246 247 247 246 246 245 246 247 249 250 250 247
340 339 339 339 338 337 337 337 339 340 339 337 334 332 330 328 327 326 324 321 319 317 315 314 312 311 310 309 308 307 306 304 303 302 299 298 296 294 292 291 289 287 286 284 282 279 277 275 272 269 266 263 261 259 258 257 255 254 255 253 251 248 246 245 242 236 234 241 243 241 241 240 241 242 241 243 247 248 249 248 248 246 246 247 246 248 249 246
342 342 341 341 341 342 343 343 343 342 339 336 333 331 330 329 328 326 324 322 320 319 318 317 316 315 314 313 312 311 310 308 306 304 302 300 298 297 295 294 292 291 289 287 285 283 280 276 274 270 267 265 262 260 258 257 256 254 252 250 249 248 247 245 242 235 235 241 244 243 241 242 242 242 243 244 245 246 248 250 250 249 247 247 246 247 248 248
343 343 343 343 345 347 348 346 343 341 337 334 332 332 331 330 328 327 325 323 322 321 320 320 320 319 318 316 315 314 312 310 308 306 304 303 302 302 302 301 300 299 298 296 293 290 286 282 277 273 270 267 263 259 257 255 255 256 253 251 251 250 249 247 243 240 241 245 246 245 244 244 246 246 245 245 245 246 248 250 250 249 248 247 246 246 246 246
342 344 345 347 350 351 349 346 342 339 337 335 333 332 331 330 329 328 327 326 325 325 324 324 323 322 320 319 318 316 313 311 310 309 309 310 312 314 314 315 316 315 312 308 304 298 292 288 284 280 275 271 267 264 262 259 258 262 262 258 255 253 252 251 247 245 248 249 250 250 249 248 249 249 248 247 246 245 245 245 246 246 247 248 246 245 245 244
344 344 347 351 353 352 349 345 341 340 338 336 334 333 333 332 331 330 329 329 329 328 328 327 326 324 323 322 320 319 317 315 315 316 320 325 328 330 331 332 331 329 322 313 305 298 296 293 288 288 283 278 278 274 271 270 265 264 265 262 259 258 257 256 254 253 255 256 255 254 252 249 248 248 247 245 244 244 243 242 242 244 244 246 246 246 245 245
347 347 351 355 354 352 348 345 343 341 339 337 336 335 335 334 333 332 332 332 331 331 331 329 328 327 326 325 324 323 322 323 326 333 339 343 344 345 349 351 350 348 341 329 310 295 290 290 288 286 282 279 281 278 276 275 272 271 271 269 266 263 260 260 260 259 257 256 256 255 254 252 250 250 249 247 246 247 247 245 243 243 243 243 244 246 245 245
350 351 355 357 354 352 349 347 345 343 341 340 338 337 336 335 334 334 334 334 334 334 332 331 331 330 329 329 328 328 330 335 346 357 359 0 2 3 2 1 359 357 356 352 340 315 289 283 284 282 280 278 276 274 274 273 275 279 279 276 272 269 267 266 266 264 260 258 257 257 255 254 254 255 253 251 251 250 250 249 247 245 244 243 243 244 245 244
354 356 358 357 354 352 350 348 346 345 344 342 340 339 337 336 336 336 336 337 336 335 334 334 334 334 333 333 333 336 344 357 15 21 18 16 13 9 2 357 357 355 354 356 1 356 322 291 283 281 280 278 275 272 271 271 273 275 277 277 276 274 274 274 273 270 267 264 261 259 257 257 257 260 258 254 252 251 251 251 249 247 246 245 243 243 243 242
357 359 359 357 354 352 350 349 347 346 345 343 341 339 338 337 337 338 338 338 337 337 337 338 337 337 337 338 341 348 2 20 32 30 23 16 9 6 1 355 354 354 352 350 355 2 355 330 305 293 290 285 278 274 271 271 271 271 274 275 276 275 275 277 276 273 270 266 264 261 260 260 260 261 260 255 252 251 251 251 250 249 248 247 246 244 242 241
359 360 359 355 353 351 350 350 348 347 345 343 342 340 339 339 339 339 340 339 339 340 340 340 340 341 342 345 353 2 15 27 29 23 16 10 6 3 1 358 355 353 352 351 349 351 352 349 343 330 320 312 296 283 274 271 271 271 271 271 273 274 272 272 272 273 272 269 265 262 262 263 261 261 259 256 255 253 249 248 250 250 249 248 247 246 244 242
357 358 356 354 352 349 349 349 348 347 345 344 342 340 340 340 340 340 340 341 342 343 343 342 343 345 348 356 5 11 18 23 20 16 12 10 7 2 359 356 355 353 352 354 349 343 342 343 348 348 344 341 334 318 294 274 269 271 272 271 272 270 267 266 266 268 268 268 267 266 266 263 259 260 259 254 255 263 257 248 245 247 247 246 246 246 245 243
355 355 353 352 351 349 348 348 347 346 345 344 343 341 342 343 341 340 341 343 345 345 345 345 346 347 354 3 9 12 13 16 15 13 12 9 5 0 355 353 352 350 351 355 350 339 339 342 342 340 340 341 344 342 329 308 289 275 273 274 271 269 268 266 265 264 262 262 264 269 272 267 260 258 258 253 246 252 258 251 245 245 245 245 244 244 243 242
350 349 349 349 349 348 347 346 346 346 345 344 343 342 344 344 341 341 343 345 346 347 346 348 349 351 358 4 6 6 5 10 11 11 10 5 1 356 352 352 351 347 346 351 351 342 340 342 338 333 331 334 336 333 331 335 326 298 285 282 276 274 277 273 269 268 265 263 264 269 272 268 265 261 256 255 250 244 251 258 256 250 246 245 245 243 241 241
344 344 344 345 346 346 346 345 345 346 345 344 343 343 344 345 343 342 344 346 347 348 349 350 351 356 2 359 357 358 2 9 9 5 5 1 358 354 352 353 352 351 349 348 347 345 345 341 335 328 325 328 332 327 324 325 319 310 302 294 285 282 285 282 275 271 268 269 270 272 273 270 269 264 255 254 255 252 255 260 260 255 251 248 247 245 242 240
338 339 340 342 343 344 344 344 344 346 345 344 344 344 344 346 345 343 344 347 349 350 352 353 353 355 358 351 348 353 0 7 5 2 1 356 353 354 354 353 354 357 357 351 344 344 344 340 335 330 327 328 327 322 319 315 307 302 296 291 288 286 286 285 280 273 271 275 277 275 275 273 270 264 261 259 258 257 257 259 260 257 252 248 247 246 243 239
332 334 336 339 340 341 342 343 343 345 345 344 343 344 345 346 345 344 346 349 350 352 354 354 352 347 347 343 342 350 357 1 3 2 359 353 349 353 356 356 357 358 359 356 348 343 340 336 330 324 323 326 324 319 314 310 305 298 292 288 288 287 286 285 281 276 274 277 279 278 276 276 274 272 270 267 262 260 259 259 261 260 255 250 247 247 246 240
331 332 334 337 338 339 340 341 342 345 345 344 343 345 346 345 345 347 349 350 351 354 355 354 350 338 334 337 338 346 352 353 357 357 355 351 348 351 355 358 359 356 354 354 350 344 340 338 331 319 318 323 323 320 315 312 310 305 300 295 290 289 286 283 280 278 275 274 276 279 279 279 280 280 277 272 267 264 261 260 261 261 258 254 248 245 246 243
333 333 334 336 336 337 339 340 342 344 344 343 343 345 345 344 346 348 349 351 352 355 356 354 347 329 324 333 333 338 345 347 350 351 351 350 349 350 352 354 357 353 349 351 351 347 345 346 343 330 324 327 327 323 315 312 314 312 307 303 298 294 288 283 281 277 275 275 275 277 279 280 280 279 277 273 271 267 263 260 259 258 257 256 251 243 243 244
336 336 336 336 336 335 337 339 341 343 344 344 343 344 345 344 345 348 350 352 353 354 356 355 346 322 312 325 323 326 340 345 348 352 350 348 348 350 350 350 353 350 346 350 352 348 345 347 348 341 334 332 330 324 318 314 317 316 311 307 303 299 291 286 284 281 280 280 281 281 279 278 277 277 276 275 274 271 267 263 259 257 255 253 251 246 241 241
338 338 338 337 336 335 336 338 341 344 344 342 341 344 345 343 344 348 352 354 355 355 356 355 347 323 308 320 316 316 330 337 343 350 349 345 347 351 351 350 351 348 344 347 348 348 348 348 351 350 343 336 331 328 325 322 323 319 315 310 304 303 299 293 290 287 285 284 285 286 282 279 279 278 275 272 271 271 268 265 261 259 256 251 249 247 242 237
339 339 338 338 336 335 336 338 341 343 342 340 341 345 343 342 345 349 352 354 356 356 358 357 353 335 313 315 308 309 322 328 336 344 345 345 348 351 351 349 350 348 342 344 347 349 350 350 355 357 347 340 338 335 329 326 330 327 318 309 305 309 306 300 297 292 289 290 291 289 286 287 286 283 282 277 274 275 272 269 267 265 260 254 246 243 241 236
339 339 339 338 337 335 335 338 340 342 343 341 342 345 343 342 346 349 351 355 356 355 358 359 356 345 326 309 297 305 313 319 333 339 338 343 349 350 349 347 348 346 342 344 347 348 350 353 358 1 349 342 347 345 340 335 335 334 323 312 309 312 308 302 300 297 293 294 295 290 291 294 291 287 289 287 281 281 281 276 276 275 266 256 247 240 239 235
339 340 340 338 337 335 336 339 341 343 344 343 344 345 344 343 347 350 351 355 356 355 356 356 353 348 337 308 298 304 308 317 328 332 333 339 346 348 348 348 347 345 344 348 348 347 352 356 359 1 353 347 353 351 351 349 345 341 329 319 315 313 310 305 302 302 296 295 300 299 293 293 295 297 294 289 285 284 285 283 285 287 274 256 247 239 236 233
340 342 341 340 338 336 337 339 342 344 344 343 344 344 344 343 347 352 351 353 356 355 354 354 353 351 338 306 298 300 304 315 317 321 331 335 336 344 352 349 347 347 347 350 350 348 353 356 357 359 352 349 1 360 357 356 351 346 338 334 329 321 318 313 311 310 299 299 312 308 294 291 297 302 297 292 289 286 289 292 298 301 283 254 245 239 234 232
341 343 343 341 339 337 338 340 342 345 345 343 342 343 343 342 347 352 351 350 354 356 355 354 353 353 345 313 295 293 298 308 312 313 322 326 328 343 355 350 345 348 349 349 350 350 353 354 355 358 350 350 7 7 1 357 352 351 349 347 340 332 334 331 326 319 305 310 322 310 299 296 299 308 303 297 294 290 292 294 300 306 289 256 243 237 232 231
342 343 344 342 340 338 339 340 342 344 344 342 342 342 342 343 347 351 351 350 353 356 355 356 355 354 352 329 297 291 296 303 309 311 316 324 330 342 351 350 347 349 350 351 351 350 351 353 355 357 352 353 8 9 3 1 358 358 358 356 349 341 345 343 334 323 311 319 321 309 302 294 295 308 303 293 290 287 286 288 294 302 297 273 248 235 230 231
342 344 344 343 341 339 338 340 342 344 344 343 343 342 341 344 346 347 352 353 351 354 355 356 356 353 353 342 313 292 290 296 305 310 315 322 327 332 341 347 349 351 352 352 350 346 346 350 352 355 355 356 5 9 6 4 3 2 360 358 355 350 350 347 335 321 312 314 311 305 301 291 294 301 291 280 275 272 273 277 284 290 292 286 260 238 230 232
343 345 345 344 342 340 340 341 343 345 345 343 343 342 341 345 344 344 352 353 349 353 354 352 355 354 353 349 332 302 286 290 301 308 311 315 317 319 331 344 347 350 351 350 349 346 344 345 347 352 359 359 5 9 7 4 2 359 356 353 351 352 357 355 339 319 307 305 304 300 297 294 297 295 285 275 269 268 270 273 273 274 277 277 268 252 238 234
344 345 345 345 343 341 341 341 343 344 343 343 343 341 341 344 343 342 349 350 347 350 353 352 354 356 355 352 340 315 292 286 292 300 304 308 310 314 328 343 344 345 347 349 350 349 346 344 348 356 359 1 7 9 7 3 1 358 354 350 349 349 352 351 343 330 314 307 305 297 294 297 300 295 288 282 274 270 269 267 263 258 256 257 259 258 250 242
344 345 346 346 344 342 341 340 342 344 343 344 341 339 342 344 342 343 346 347 346 346 349 353 354 355 356 356 349 330 307 290 286 290 297 303 307 312 323 334 338 339 344 351 353 349 346 346 352 358 357 359 6 6 3 0 359 359 356 352 350 344 340 341 342 337 330 326 317 302 297 295 291 286 283 282 279 273 268 267 266 260 253 249 246 246 246 247
344 345 346 347 346 343 341 340 341 342 344 344 339 340 344 343 342 346 345 343 344 344 346 350 354 355 354 354 351 342 327 304 290 286 289 296 301 306 314 325 331 334 340 349 353 350 345 343 348 354 356 1 1 358 357 355 356 358 358 356 353 344 337 336 338 335 330 332 332 319 312 294 281 280 279 280 278 272 270 272 276 273 268 262 254 245 241 243
342 343 346 347 346 343 341 341 341 342 344 343 339 342 344 339 338 342 342 341 341 342 344 346 350 352 351 350 348 344 337 325 309 293 285 288 295 299 306 317 324 328 336 344 349 351 347 343 347 352 357 2 358 350 352 352 353 354 355 358 357 352 346 339 338 337 332 335 340 337 332 309 287 282 280 280 277 274 274 273 273 272 270 267 261 254 246 239
340 342 345 345 345 344 343 342 340 342 344 343 342 342 339 334 336 339 341 341 339 339 342 344 345 347 349 349 348 344 338 331 325 312 296 288 289 293 300 309 318 324 332 339 344 348 350 349 350 351 357 2 353 346 350 349 348 349 350 356 358 358 355 348 346 347 343 343 346 342 334 316 297 292 287 281 275 271 271 270 267 266 264 264 260 254 252 244
340 341 343 345 345 345 344 341 340 342 345 346 345 339 333 332 334 336 340 340 337 338 341 341 344 346 347 349 349 347 342 334 327 323 314 299 286 287 294 303 312 319 327 335 341 344 349 352 349 347 355 360 348 344 349 348 346 346 347 353 356 358 359 355 353 352 346 345 350 350 336 314 301 300 296 292 285 277 272 271 271 267 262 262 261 256 251 245
339 342 343 344 345 344 342 341 342 344 344 345 345 340 335 334 333 332 337 339 337 336 338 340 343 345 346 348 349 347 345 340 331 326 322 311 293 285 288 295 303 313 321 330 338 342 346 350 348 344 352 358 348 344 349 349 346 346 347 351 354 355 357 357 356 352 343 339 340 342 336 316 306 302 297 300 303 296 288 285 283 279 273 267 264 262 254 245
337 342 343 343 344 344 342 341 343 344 344 343 344 343 338 333 332 331 333 337 337 334 335 338 340 344 345 346 347 347 346 343 337 329 324 318 305 291 285 287 294 305 315 323 332 338 342 346 349 347 348 354 350 342 346 348 346 344 343 344 348 351 352 354 357 354 345 337 332 331 332 324 314 304 297 300 304 301 299 298 296 291 286 281 275 268 259 247
335 339 343 344 344 344 343 343 342 341 342 344 344 343 337 331 330 330 330 333 335 333 332 335 337 341 343 344 346 346 346 344 340 334 329 323 316 304 290 283 286 295 306 316 324 331 338 344 349 350 346 348 348 340 339 344 343 342 340 339 342 346 347 349 355 354 347 341 337 335 338 334 324 315 310 305 300 300 304 309 310 301 291 290 285 275 264 250
334 338 341 344 345 344 342 342 341 339 339 343 344 342 339 333 328 327 329 330 331 331 331 334 336 338 341 345 346 347 346 345 342 337 331 324 321 319 304 287 284 290 297 307 314 321 332 339 345 352 349 344 343 338 337 341 341 341 342 341 339 339 341 344 350 350 343 340 341 340 340 340 335 332 331 321 307 306 313 314 312 304 289 284 283 279 270 253
334 337 340 343 345 344 341 339 339 339 339 340 343 342 340 335 327 324 326 327 329 330 331 334 335 336 340 345 347 348 347 345 342 338 332 324 322 326 321 302 288 287 294 303 310 316 326 334 341 354 357 346 341 338 336 340 342 343 346 344 338 336 340 344 344 343 340 339 342 340 340 343 343 341 342 336 322 316 318 316 312 305 293 282 278 280 275 256
332 336 339 342 343 341 338 336 336 338 339 340 341 341 339 335 326 322 324 325 326 328 329 331 333 334 339 343 345 348 348 345 343 341 336 327 322 324 326 320 301 288 290 296 303 311 319 327 336 349 355 347 341 337 335 338 342 347 350 346 339 336 338 338 337 338 340 342 342 338 339 345 346 343 345 342 332 324 318 318 318 311 304 294 282 281 280 263
329 333 336 339 341 340 336 335 335 336 339 340 340 339 339 337 328 322 323 324 324 326 327 328 330 333 337 340 343 347 349 349 346 345 342 333 324 320 322 324 316 298 290 292 297 304 312 320 328 338 346 345 343 339 334 337 343 348 350 345 340 338 338 337 337 338 340 342 341 337 339 345 345 341 348 346 333 328 322 319 318 312 312 311 298 283 281 272
327 331 334 337 340 339 335 334 334 336 339 340 340 340 339 338 333 326 323 324 323 323 325 326 326 330 333 337 343 346 348 349 347 348 348 341 331 322 320 324 324 310 296 293 295 300 308 315 320 329 338 340 343 342 333 335 343 346 347 344 340 340 342 340 338 339 338 338 339 338 339 344 344 337 342 345 337 331 326 320 317 313 314 319 311 286 277 278
325 329 333 337 338 337 334 333 332 334 338 340 340 341 340 338 337 332 327 327 326 324 326 326 324 327 332 337 343 345 346 348 349 349 349 345 337 327 324 330 333 324 308 300 297 299 307 312 317 327 333 335 341 341 328 329 339 344 346 344 339 340 343 342 340 341 340 338 339 340 339 343 346 339 333 338 341 337 332 326 322 317 313 311 308 292 280 282
322 327 332 336 337 334 331 331 332 334 338 340 341 342 341 339 339 336 330 328 328 327 326 326 325 326 331 336 341 344 345 348 351 350 349 348 342 334 332 335 336 334 323 310 302 300 305 310 315 323 329 332 336 333 323 326 334 341 344 344 340 338 340 342 343 344 344 340 339 340 340 343 347 342 331 329 336 338 336 332 327 324 317 306 298 287 276 275
320 326 330 334 335 332 327 327 329 333 338 340 341 342 342 341 339 336 331 327 327 328 326 325 325 325 328 333 338 344 347 349 351 351 350 349 346 341 338 334 332 333 329 318 309 303 304 308 312 320 326 328 327 325 325 328 330 336 342 343 341 338 337 340 343 345 346 343 340 341 343 346 348 344 335 325 327 334 336 333 330 329 326 318 305 289 274 265
318 324 328 332 333 329 324 324 326 331 336 338 340 343 343 342 339 335 331 327 326 327 326 325 326 326 327 331 337 344 349 352 352 351 351 352 350 346 340 333 329 329 329 327 318 309 308 310 312 317 320 321 321 323 329 328 325 332 340 341 340 337 334 336 340 343 346 346 344 343 346 349 349 346 338 324 324 333 336 335 333 333 332 328 319 302 280 263
316 322 326 330 331 327 322 323 325 328 333 336 340 344 344 343 340 334 330 328 326 326 326 325 327 327 326 330 336 343 349 352 353 353 355 354 352 349 342 332 325 323 326 331 327 318 314 312 312 313 312 313 315 319 326 324 319 325 335 338 339 336 333 334 339 345 347 346 343 343 345 348 350 348 340 328 330 337 340 339 338 337 337 334 328 318 297 271
314 320 324 328 329 325 320 321 323 327 332 336 341 344 344 342 340 335 329 328 328 327 324 324 327 328 326 329 336 342 347 352 353 353 357 357 354 351 344 334 326 322 322 325 325 322 318 313 310 307 303 303 305 311 319 316 312 320 330 337 340 339 335 336 342 348 348 344 343 346 347 349 351 350 341 329 332 341 344 345 342 339 340 339 334 330 320 296